Regional Weather Roundup
Issued by NWS

Home | Current Version | Previous Version | Graphics & Text | Print | Product List | Glossary On
Versions: 1 2 3 4 5 6 7 8 9 10 11 12 13 14 15 16 17 18 19 20 21 22 23 24 25 26 27
000
ASUS45 KTFX 281110
RWRMT
MONTANA REGIONAL WEATHER ROUNDUP
NATIONAL WEATHER SERVICE GREAT FALLS MT
500 AM MDT SUN MAY 28 2017

NOTE: "FAIR" INDICATES FEW OR NO CLOUDS BELOW 12000 FEET WITH NO
SIGNIFICANT WEATHER AND/OR OBSTRUCTIONS TO VISIBILITY.

MTZ001>007-043-281200-
WEST OF THE DIVIDE

CITY           SKY/WX    TMP DP  RH WIND       PRES   REMARKS
KALISPELL      CLEAR     43  42  97 CALM      30.18S
MISSOULA       CLEAR     49  41  74 SE5       30.24R
BUTTE          CLEAR     36  31  82 CALM      30.30S
MULLAN PASS    CLEAR     52  36  54 NW5       30.30S
ANACONDA         N/A     43  34  70 S6        30.26F
DEER LODGE       N/A     37  34  87 CALM      30.30R
EUREKA           N/A     46  41  81 CALM      30.19R
HAMILTON         N/A     50  36  57 S8        30.24S
PLAINS           N/A     44  38  79 CALM      30.19R
RONAN            N/A     45  40  82 CALM      30.21S
$$

MTZ008-052>055-281200-
SOUTHWEST MONTANA

CITY           SKY/WX    TMP DP  RH WIND       PRES   REMARKS
BOZEMAN        CLEAR     37  34  89 SE7       30.25S WCI  32
DILLON         CLEAR     41  31  67 S13       30.28S
ENNIS          PTCLDY    36  32  87 CALM      30.33S
THREE FORKS      N/A     39  37  92 CALM      30.20F
$$

MTZ009-010-012-014-046-048-049-054-281200-
EAST SLOPES AND CENTRAL MONTANA

CITY           SKY/WX    TMP DP  RH WIND       PRES   REMARKS
CUT BANK       CLEAR     47  41  80 NW13      30.20R
GREAT FALLS    MOCLDY    50  43  77 SW14      30.18F
MALMSTROM AFB  MOCLDY    50  45  81 SW12      30.17F
HELENA         CLEAR     48  39  71 NW6       30.22R
CHOTEAU          N/A     50  41  71 SW5       30.22R
CONRAD           N/A     53  49  86 CALM      30.19S
$$

MTZ011-013-016-021-045-047-050-051-281200-
NORTH CENTRAL MONTANA

CITY           SKY/WX    TMP DP  RH WIND       PRES   REMARKS
HAVRE          PTCLDY    48  43  82 NE7       30.12R
LEWISTOWN      PTCLDY    48  43  82 SW6       30.18F
N BAR RANCH    LGT RAIN  59  36  41 W12G36    30.19S
CHINOOK          N/A     46  45  93 SW3       30.11R
$$

MTZ017>020-022>027-061-062-281200-
NORTHEAST MONTANA

CITY           SKY/WX    TMP DP  RH WIND       PRES   REMARKS
GLASGOW        PTCLDY    50  40  68 NW8       30.04S
JORDAN           N/A     45  39  79 NW5       30.07F
SIDNEY         CLEAR     49  34  56 NW12      29.98S
WOLF POINT     CLEAR     47  33  58 W9        30.02S
MALTA          PTCLDY    43  43 100 CALM      30.06F
PLENTYWOOD       N/A     46  34  61 W7        29.99R
POPLAR           N/A     45  34  65 SW5       30.01S
SCOBEY           N/A     37  27  68 CALM      29.99S
$$

MTZ028>42-056>058-281200-
SOUTHCENTRAL AND SOUTHEAST MONTANA

CITY           SKY/WX    TMP DP  RH WIND       PRES   REMARKS
BAKER          MOCLDY    47  38  71 W8        30.05R
BILLINGS       CLOUDY    56  40  55 SW14      30.16R
LIVINGSTON     CLOUDY    40  36  86 NW8       30.24S
MILES CITY     CLOUDY    54  39  57 NW10      30.07R
BIG TIMBER     CLOUDY    48  37  66 W10       30.24F
EKALAKA          N/A     50  37  60 W2        30.05R
FORSYTH          N/A     55  43  62 CALM      30.08S
LAUREL           N/A     54  38  54 SW8       30.14F
ROUNDUP          N/A     55  40  57 S8        30.05R
$$

REGIONAL REPORTS...DAKOTAS

CITY           SKY/WX    TMP DP  RH WIND       PRES   REMARKS
WILLISTON      CLEAR     48  35  60 E5        29.97R
MINOT          PTCLDY    52  42  69 W16       29.88R
DICKINSON      CLEAR     41  36  82 W10       29.95S
BEACH            N/A     43  37  81 W8        30.04S
CROSBY         MOCLDY    48  41  76 W8        29.94F
TIOGA          MOCLDY    45  45 100 W10       29.96R
WATFORD CITY     N/A     45  36  70 CALM      29.96R
BISMARCK       CLEAR     47  42  83 W7        29.90R
GRAND FORKS    PTCLDY    50  47  89 NW7       29.73S
FARGO          CLEAR     49  46  90 W6        29.75F
BUFFALO SD       N/A     50  40  68 NW14      29.97R
RAPID CITY     MOCLDY    52  38  58 W10       30.02S
$$

REGIONAL REPORTS...WYOMING/IDAHO/WASHINGTON

CITY           SKY/WX    TMP DP  RH WIND       PRES   REMARKS
GILLETTE       MOCLDY    50  40  68 W13       30.14R
SHERIDAN       MOCLDY    54  40  59 W10       30.17F
BUFFALO WY     CLEAR     54  35  48 NW14      30.20S
CODY           CLOUDY    53  31  42 NW7       30.26R
YELLOWSTONE LA   N/A     27  27 100 CALM      30.41S
IDAHO FALLS    CLEAR     39  38  96 CALM      30.28S
SALMON         CLEAR     41  36  81 CALM      30.27S
BOISE          CLEAR     57  40  52 E9        30.17R
SPOKANE        CLEAR     59  44  57 SE5       30.15S
$$

REGIONAL REPORTS...ALBERTA

CITY           SKY/WX    TMP DP  RH WIND       PRES   REMARKS
EDMONTON       CLEAR     46  36  66 N8        30.24R
CALGARY        PTCLDY    52  37  58 N9        30.24R
LETHBRIDGE     CLEAR     50  45  81 NW3       30.18R
MEDICINE HAT   CLEAR     50  45  81 CALM      30.11R
WATERTON GATE    N/A     43  37  81 SW7         N/A
CARDSTON         N/A     45  39  81 S3          N/A
MILK RIVER       N/A     48  45  87 NW12        N/A
ONEFOUR          N/A     52  43  71 NW15        N/A
$$

REGIONAL REPORTS...SASKATCHEWAN

CITY           SKY/WX    TMP DP  RH WIND       PRES   REMARKS
SWIFT CURRENT  MOCLDY    48  39  71 W9        30.03S
REGINA         MOCLDY    43  37  81 W10       29.94F
SASKATOON      PTCLDY    41  37  87 NW9       30.03R
CYPRESS HILLS    N/A     48  37  66 NW3         N/A
ROCKGLEN         N/A     52  32  46 W13         N/A
ASSINIBOIA       N/A     43  37  81 NW6         N/A
$$




USA.gov is the U.S. government's official web portal to all federal, state and local government web resources and services.